sat.trackr.live / text

‹ back to catalog

TIANQI-26

NORAD 59910 · 2024-102B

PAYLOAD ACTIVE UNKNOWN

§ Identity

Operator
Country
PRC
Launch date
2024-05-29
Launch site
YSLA
Launch vehicle
Mass (kg)
RCS (m²)

External: N2YO · Heavens-Above · Gunter

§ Orbital elements

Epoch: 2026-09-22T21:38:35.088000Z

Period
102.92 min
Inclination
44.9728°
Eccentricity
0.0011324
Mean motion
13.99178894 rev/d
Perigee alt
888.4 km
Apogee alt
904.9 km
Semi-major
7,274.8 km
B*
1.0294e-4
RAAN
186.6936°
Arg perigee
343.8979°
Mean anomaly
16.1492°
Rev number
11,859

§ Raw data

TIANQI-261 59910U 24102B   26265.90179500  .00000022  00000+0  10294-3 0  99972 59910  44.9728 186.6936 0011324 343.8979  16.1492 13.99178894118599

JSON: /api/v1/satellites/59910 · /tle

For live sub-satellite position, see the globe view (requires WebGL).

§ Visibility from observer

Set your observer location to see the next 7 days of passes ≥ 10°. The values pass through the URL so the page stays shareable.

No JS? Fill the form by hand. The geolocation button needs JavaScript.